SCP
0 0 0 0 0 0 0 0 0 0 0 0 0 0 0 0 0 1 1 1 2 3 3 2 2 2 2 3 4 4 4 3 3 3 2 2 1 1 1 1 1 1 1 1
0 0 0 0 0 0 0 0 0 0 0 0 0 0 0 0 0 1 1 2 2 3 3 2 2 2 3 3 4 4 4 3 3 2 2 2 1 1 1 2 1 1 1 1
0 0 0 0 0 0 0 0 0 0 0 0 0 0 0 0 0 0 1 2 2 2 2 1 1 2 3 3 3 4 3 3 2 2 2 2 2 2 2 2 2 2 2 2
0 0 0 0 0 0 0 0 0 0 0 0 0 0 0 0 0 0 0 1 2 2 1 0 1 1 2 3 3 3 2 2 2 2 2 2 2 2 3 3 3 2 2 1
0 0 0 0 0 0 0 0 0 0 0 0 0 0 0 0 0 0 0 1 2 1 1 0 0 1 1 2 3 3 3 2 3 3 3 3 2 3 3 3 3 3 2 2
0 0 0 0 0 0 0 0 0 0 0 0 0 0 0 0 0 0 0 1 2 1 1 0 0 1 1 2 2 3 3 3 3 3 3 3 2 3 4 4 3 3 3 2
0 0 0 0 0 0 0 1 1 0 0 0 0 0 0 0 0 0 0 1 1 1 1 0 0 1 1 2 3 3 3 3 3 3 3 3 2 2 3 4 4 4 3 3
0 0 0 0 0 0 1 1 0 0 0 0 0 0 0 0 0 0 0 1 1 1 1 1 0 1 1 2 3 3 3 2 2 2 3 3 2 2 2 3 4 4 4 3
0 0 0 0 0 1 1 1 0 0 0 0 0 0 0 0 0 0 0 1 1 1 1 1 1 1 1 1 2 3 3 2 2 2 2 2 3 3 3 2 3 3 3 3
0 0 0 0 0 1 1 1 1 1 1 1 1 0 0 0 0 0 0 1 1 1 1 1 0 1 1 1 2 3 4 3 3 3 3 2 2 3 3 3 3 3 3 3
0 0 0 0 0 1 1 1 1 1 1 1 0 0 0 0 0 0 0 1 1 1 1 0 0 0 1 1 1 3 4 4 3 3 3 3 2 2 3 3 3 3 3 2
0 0 0 0 1 1 1 1 1 1 1 1 0 0 0 0 0 0 0 0 0 0 1 0 0 0 0 0 1 2 4 4 4 4 4 3 2 2 3 4 4 3 3 3
0 0 0 0 0 1 1 1 1 1 1 0 0 0 0 0 0 0 0 0 0 0 1 0 0 0 1 0 1 1 3 4 5 5 5 4 3 2 3 4 4 4 3 3
0 0 0 0 0 0 1 1 1 1 1 0 0 0 0 0 0 0 0 0 0 0 1 1 1 1 1 1 1 1 3 5 5 6 6 5 3 3 3 3 4 4 3 3
0 0 0 0 0 0 0 0 1 1 1 1 0 0 0 0 0 0 0 0 0 0 1 1 1 0 1 1 1 2 3 5 6 6 6 5 4 3 3 3 2 3 2 2
0 0 0 0 0 0 0 0 0 0 0 0 0 0 0 0 0 0 0 0 0 0 1 1 0 0 1 1 2 2 3 4 6 6 5 4 3 3 3 2 2 1 2 2
0 0 0 0 0 0 0 0 0 0 0 0 0 0 0 0 0 0 0 0 0 1 1 1 0 0 1 1 2 2 3 4 5 5 4 4 3 3 3 2 2 1 1 1
0 0 0 0 0 0 0 0 0 0 0 0 0 0 0 0 0 0 0 0 1 1 1 1 1 1 1 1 1 2 3 3 4 4 4 4 3 3 2 2 2 1 1 1
0 0 0 0 0 0 0 0 0 0 0 0 0 0 0 0 0 0 0 1 1 1 1 1 1 1 1 1 1 1 1 2 2 3 4 4 3 3 2 2 2 2 2 2
0 0 0 0 0 0 0 0 0 0 0 0 0 0 0 0 0 0 0 0 0 0 1 1 1 1 1 1 1 1 1 1 1 1 2 3 3 2 2 2 3 3 2 2
0 0 0 0 0 0 0 0 0 0 0 0 0 0 0 0 0 0 0 0 0 0 1 1 1 1 1 1 1 0 0 0 0 0 1 1 2 2 2 2 2 3 3 3
0 0 0 0 0 0 0 0 0 0 0 0 0 0 0 0 0 0 0 0 0 0 1 1 0 0 0 0 0 0 0 0 0 0 0 0 1 1 1 1 2 2 2 2
0 0 0 0 0 0 0 0 0 0 0 0 0 0 0 0 0 0 0 0 0 1 1 1 0 0 0 0 0 0 0 0 0 0 0 0 0 0 1 1 1 1 1 1
0 0 0 0 0 0 0 0 0 0 0 0 0 0 0 0 0 0 0 0 0 0 1 1 1 0 0 0 0 0 0 0 0 0 0 0 1 1 1 1 1 1 1 1
0 0 0 0 0 0 0 0 0 0 0 0 0 0 0 0 0 0 0 0 0 0 0 0 1 1 1 1 1 0 0 0 1 1 1 1 1 1 1 0 0 0 0 0
0 0 0 0 0 0 0 0 0 0 0 0 0 0 0 0 0 0 0 0 0 0 0 0 0 1 1 1 1 1 1 1 1 1 1 1 1 1 1 0 0 0 0 0
Wind_Speed
5 5 5 4 5 5 4 4 3 2 4 4 3 2 3 3 3 3 3 3 3 4 5 5 5 4 3 3 3 4 4 4 3 2 2 1 1 1 1 1 1 2 2 2
5 5 3 2 3 4 5 5 4 3 2 2 3 4 4 5 5 3 2 3 3 2 4 5 5 4 3 2 2 4 3 3 3 2 2 1 1 1 1 1 1 2 2 2
5 2 2 4 5 5 6 5 3 2 2 4 4 4 5 6 5 4 3 3 4 3 4 4 4 4 4 3 2 2 3 3 3 3 2 1 1 1 1 1 1 1 1 1
4 4 3 4 4 5 5 3 4 4 4 4 6 3 4 6 6 5 3 3 3 3 4 4 4 3 3 3 3 2 2 3 3 3 2 2 2 1 1 1 1 0 1 1
4 3 4 4 4 5 4 4 5 7 7 7 7 5 4 6 5 5 4 3 3 3 4 4 3 3 3 2 2 2 2 2 3 3 3 2 2 1 1 1 2 1 1 1
5 3 3 3 3 5 5 6 7 7 7 7 8 5 2 4 5 5 4 4 4 3 4 4 4 4 3 3 2 2 2 1 2 2 2 2 2 2 2 1 1 1 1 1
6 6 4 3 5 5 5 5 3 4 5 4 4 3 3 4 5 5 4 4 3 4 4 4 4 4 3 3 3 2 2 1 2 2 2 2 2 2 2 2 2 2 1 1
6 5 6 4 4 4 5 6 4 3 3 2 3 3 5 7 7 6 5 4 4 4 4 3 4 3 3 3 3 2 1 1 1 1 2 1 1 1 1 2 1 2 1 2
5 3 4 4 4 5 5 5 5 6 7 6 2 4 6 6 6 5 4 4 4 3 3 3 3 3 3 2 2 2 2 1 2 2 1 1 1 1 1 0 0 0 0 0
8 6 4 4 4 5 6 6 4 4 3 4 3 3 3 5 5 4 4 4 4 3 3 3 3 3 3 3 2 2 1 1 1 1 1 1 1 1 1 1 1 0 1 1
8 8 5 6 6 5 6 6 5 4 4 4 2 1 4 5 5 4 4 4 3 3 3 2 1 1 2 3 3 2 2 1 1 1 0 1 1 1 1 1 1 1 1 1
5 6 7 6 4 3 4 5 5 4 4 5 4 1 4 5 5 4 4 4 4 3 2 2 2 1 1 2 2 2 2 2 1 1 0 0 0 1 1 1 1 1 1 2
5 6 6 4 4 4 4 6 5 5 5 5 4 2 4 5 5 4 3 4 3 3 3 2 2 1 1 1 1 1 1 2 1 1 1 0 1 0 0 1 1 1 1 1
4 7 8 7 5 2 5 6 5 5 4 5 5 2 3 3 3 3 2 3 3 2 2 2 2 1 1 1 0 1 1 2 1 1 1 0 1 1 0 1 1 0 0 1
4 8 10 9 8 8 8 8 7 7 7 7 6 4 2 3 3 3 2 2 2 2 2 2 2 1 2 2 2 1 1 1 1 1 0 0 0 1 1 1 1 1 1 1
5 8 9 9 9 9 10 8 8 8 7 8 6 3 1 2 2 2 2 2 2 2 2 2 2 2 2 2 2 2 1 1 1 0 0 0 0 1 1 1 1 1 1 1
5 7 8 8 7 8 9 7 6 4 3 3 4 2 2 1 1 2 2 2 2 2 2 2 2 2 2 1 1 1 1 0 1 1 0 0 0 1 1 1 1 1 1 1
8 8 5 6 7 9 1 1 1 1 1 1 1 2 2 1 2 2 3 3 2 2 1 2 2 2 2 1 1 2 1 1 1 1 0 0 1 1 1 1 2 1 1 2
7 6 5 5 7 6 2 1 1 2 1 1 1 1 2 2 2 2 3 3 2 2 2 2 2 2 2 2 2 2 2 2 1 0 0 1 1 1 2 2 2 2 2 2
5 6 6 5 6 5 1 2 2 2 1 1 1 1 1 1 1 1 2 2 2 3 2 2 2 2 2 2 2 2 2 2 2 2 2 1 1 2 2 2 3 2 2 2
4 5 7 7 7 3 1 2 1 1 1 3 2 2 1 0 1 2 2 2 2 2 2 2 2 2 2 2 2 1 2 2 2 2 2 2 1 2 3 2 2 3 2 2
3 3 5 5 6 2 3 2 1 2 3 3 2 2 1 2 3 3 2 2 2 1 1 1 1 1 1 2 2 2 2 2 2 2 2 2 1 2 2 2 2 2 2 2
2 2 1 1 1 3 3 3 2 3 3 3 2 2 2 2 2 2 2 2 1 1 1 1 1 1 1 1 1 2 2 2 2 2 2 2 2 1 1 2 2 2 2 2
2 2 2 2 1 1 2 3 3 3 3 3 3 2 2 2 1 1 1 1 1 1 1 1 1 2 2 2 1 1 2 2 2 3 3 3 2 2 1 1 1 1 2 2
4 3 3 4 2 1 1 2 3 4 3 3 2 2 2 1 1 0 0 0 1 1 1 1 1 2 2 2 2 2 2 2 3 2 2 3 2 2 2 1 2 2 2 2
4 4 4 3 1 2 3 3 3 3 2 2 1 2 2 2 1 1 0 0 1 1 1 2 2 2 3 3 2 2 3 3 3 3 2 2 2 1 1 1 2 3 3 5
Wind_Direction
203 222 225 221 232 262 275 272 246 215 173 175 179 194 161 159 167 171 167 163 142 141 136 120 112 108 101 100 111 111 124 126 116 103 95 101 103 108 86 77 65 62 55 60
211 221 235 254 250 251 253 252 246 221 191 202 197 205 188 173 175 172 171 150 145 140 131 126 131 127 127 125 145 132 129 123 122 121 126 124 117 123 111 95 73 68 61 45
225 221 221 235 237 242 248 258 263 250 243 242 228 216 192 170 158 153 161 156 149 140 130 133 133 131 136 138 140 139 141 131 129 125 114 101 88 70 74 93 80 70 86 77
235 230 229 247 254 268 256 268 266 261 249 245 226 235 182 161 156 162 161 143 123 115 116 122 123 116 126 144 156 147 143 151 145 141 142 148 148 155 177 160 149 137 80 81
241 215 242 250 262 275 273 279 267 262 256 261 245 242 180 156 155 163 158 146 130 128 127 126 126 123 119 113 132 138 137 135 140 151 151 167 177 181 160 142 147 146 122 98
253 236 256 273 260 261 267 259 251 250 254 251 234 228 158 162 166 158 153 149 143 132 120 124 121 110 104 98 87 102 116 127 124 133 152 173 181 174 156 170 161 171 164 170
235 217 212 251 258 235 248 259 253 226 218 233 206 189 124 109 107 116 133 136 132 136 130 124 122 120 122 117 109 90 85 102 121 138 170 185 196 198 189 196 190 183 186 195
241 219 194 209 249 265 248 249 261 283 277 281 218 164 118 108 97 92 98 104 104 111 117 116 117 124 125 125 127 127 131 147 149 175 206 201 201 172 204 215 188 188 197 208
291 231 178 191 232 265 259 243 269 284 287 279 221 127 122 106 108 108 107 102 98 99 109 116 118 126 130 130 140 151 157 175 177 191 201 165 188 150 167 257 293 244 228 230
287 284 209 185 210 228 260 286 272 263 282 271 239 170 155 148 137 123 116 114 108 105 110 106 129 149 153 150 159 153 150 167 187 193 204 166 182 174 179 185 188 230 322 314
276 274 236 201 212 232 225 236 255 266 263 281 279 82 82 123 131 133 124 116 110 98 94 96 92 130 153 149 159 160 163 177 174 188 233 219 187 169 159 173 203 217 214 264
279 277 264 231 197 208 249 248 255 261 274 279 283 84 81 99 101 107 114 109 98 89 83 85 74 39 153 156 164 171 168 165 166 169 170 313 214 173 173 186 202 209 223 238
317 275 267 224 195 194 239 242 256 274 281 274 273 141 105 102 91 83 98 106 104 100 87 77 69 36 16 76 173 153 149 131 128 124 122 74 2 357 220 227 211 218 229 254
296 270 267 271 284 248 246 243 237 253 262 274 273 220 162 136 126 118 111 116 112 106 98 80 68 37 10 12 349 120 110 111 103 108 107 75 14 356 333 307 288 252 267 279
265 273 276 280 287 283 269 263 246 248 259 268 278 266 227 167 147 133 117 111 106 102 93 74 56 25 28 15 1 52 82 87 84 116 145 122 49 9 355 348 334 315 302 290
249 274 281 275 270 268 269 262 246 245 255 264 273 286 2 96 98 113 130 124 108 91 70 55 36 20 31 25 1 7 22 127 126 158 201 117 53 12 354 343 322 319 293 291
247 267 275 276 275 272 258 257 241 233 268 282 287 313 71 95 126 128 114 112 100 82 61 43 31 10 15 27 352 335 331 222 161 171 103 60 350 321 305 320 321 306 302 291
262 271 267 276 278 259 252 88 145 179 249 6 358 38 76 48 75 87 100 103 89 75 58 44 30 3 2 3 3 351 326 302 204 163 104 353 319 309 309 306 298 289 283 278
254 261 265 263 267 259 220 210 281 261 267 49 325 33 64 58 77 80 73 70 68 64 59 47 15 346 352 6 3 351 340 334 331 39 32 333 321 317 315 303 296 286 283 278
247 248 250 257 266 267 64 54 332 276 232 64 48 81 90 119 226 192 87 69 61 56 50 35 9 351 348 349 354 353 340 347 356 357 345 335 331 321 305 298 302 303 292 277
232 235 238 252 261 276 37 39 331 237 36 64 56 71 112 273 1 118 112 84 81 71 50 35 14 356 347 342 338 333 336 350 353 346 338 336 333 309 293 292 302 304 305 300
237 246 243 245 248 250 54 60 44 28 47 55 38 32 36 41 39 80 95 89 77 72 68 45 19 354 345 333 333 336 342 348 348 343 337 328 325 311 318 299 293 296 294 289
257 276 289 272 280 56 64 57 32 19 13 16 20 25 43 25 39 55 64 85 83 45 23 24 360 322 320 342 353 337 339 347 338 329 325 315 310 304 312 300 289 294 294 287
298 308 274 265 262 44 24 15 7 12 7 6 15 19 19 359 24 55 66 62 54 34 5 356 343 340 339 347 346 331 331 335 333 326 324 319 313 310 312 310 295 297 299 295
317 314 285 273 288 313 340 346 356 0 5 17 16 10 357 359 342 16 22 50 18 353 340 336 337 339 330 336 345 350 344 332 316 307 313 316 315 317 319 333 328 311 297 289
283 281 274 277 313 306 314 331 336 334 335 356 4 345 338 338 331 347 344 356 331 326 332 337 334 329 322 326 331 342 341 330 319 316 316 315 315 311 312 324 343 352 321 320